Location: Piotrkow Trybunalski
(51.4000°N, 19.6830°E)
Time: 07:22:16
(UTC+01:00)

Altair - Visible Passes

Search period start: 06 February 2023 00:00
Search period end: 16 February 2023 00:00
Orbit: 1501 x 1683 km, 47.2° (Epoch: 05 February)

Date Brightness Start Highest point End Pass type
(mag) Time Alt. Az. Time Alt. Az. Time Alt. Az.
06 Feb 7.9 18:34:12 10° SW 18:43:20 50° SSE 18:48:18 29° E visible
06 Feb 7.6 20:37:44 10° WSW 20:46:19 66° SW 20:46:19 66° SW visible
06 Feb 9.3 22:42:07 10° W 22:44:21 19° W 22:44:21 19° W visible
07 Feb 7.9 18:09:11 10° SW 18:18:12 48° SSE 18:24:36 21° E visible
07 Feb 7.4 20:12:35 10° WSW 20:22:15 70° S 20:22:38 69° SSE visible
07 Feb 8.9 22:16:56 10° W 22:20:39 27° W 22:20:39 27° W visible
08 Feb 8.0 17:44:11 10° SW 17:53:05 45° SSE 18:00:53 15° E visible
08 Feb 7.5 19:47:26 10° WSW 19:57:04 69° S 19:58:55 59° ESE visible
08 Feb 8.6 21:51:45 10° W 21:56:56 36° W 21:56:56 36° W visible
09 Feb 8.1 17:19:13 10° SW 17:27:58 43° SSE 17:37:03 10° E visible
09 Feb 7.6 19:22:18 10° WSW 19:31:52 68° S 19:35:10 46° ESE visible
09 Feb 8.2 21:26:35 10° W 21:33:11 46° WSW 21:33:11 46° WSW visible
10 Feb 7.6 18:57:10 10° WSW 19:06:41 67° S 19:11:25 35° E visible
10 Feb 7.8 21:01:25 10° W 21:09:26 58° SW 21:09:26 58° SW visible
10 Feb 9.4 23:06:02 10° W 23:07:27 15° W 23:07:27 15° W visible
11 Feb 7.7 18:32:03 10° WSW 18:41:31 66° SSE 18:47:39 26° E visible
11 Feb 7.6 20:36:15 10° W 20:45:40 67° SSW 20:45:40 67° SSW visible
11 Feb 9.2 22:40:49 10° W 22:43:41 21° W 22:43:41 21° W visible
12 Feb 7.7 18:06:56 10° WSW 18:16:21 65° SSE 18:23:52 19° E visible
12 Feb 7.5 20:11:05 10° W 20:20:42 68° S 20:21:53 63° SSE visible
12 Feb 8.9 22:15:36 10° W 22:19:55 27° W 22:19:55 27° W visible
13 Feb 7.8 17:41:50 10° WSW 17:51:11 63° SSE 18:00:06 13° E visible
13 Feb 7.6 19:45:55 10° W 19:55:31 69° S 19:58:07 52° SE visible
13 Feb 8.5 21:50:24 10° W 21:56:09 35° WSW 21:56:09 35° WSW visible
14 Feb 7.9 17:16:45 10° WSW 17:26:01 61° SSE 17:35:41 10° E visible
14 Feb 7.6 19:20:45 10° W 19:30:20 70° S 19:34:22 40° ESE visible
14 Feb 8.2 21:25:12 10° W 21:32:23 42° WSW 21:32:23 42° WSW visible
15 Feb 7.6 18:55:36 10° W 19:05:08 70° S 19:10:37 31° ESE visible
15 Feb 8.0 21:00:01 10° W 21:08:38 49° SW 21:08:38 49° SW visible
15 Feb 9.5 23:05:34 10° W 23:06:40 13° W 23:06:40 13° W visible
